Flag for United Arab Emirates Weather past 2 weeks in Abu Dhabi, Abu Dhabi, United Arab Emirates

Now
91 °F

Sunny.


Feels Like: 91 °F
Forecast: 91 / 104 °F
Wind: 8 mph from Southeast

Location: Abu Dhabi Bateen Airport

Current Time: Aug 30, 2014 at 8:48:39 AM

Latest Report: Aug 30, 2014 at 8:00 AM


Visibility: 10 mi

Pressure: 29.65 "Hg

Humidity: 36%

Dew point: 61 °F

Location of Abu DhabiLocation

Historic Weather in Abu Dhabi — Graph

°F

Abu Dhabi temperature yesterday

Maximum temperature yesterday: 109 °F (at 3:00 PM)
Minimum temperature yesterday: 91 °F (at 5:00 AM)
Average temperature yesterday: 99 °F

Past Weeks' High & Low Weather Summary

 TemperatureHumidityPressure
High117 °F (Aug 17, 2:00 PM)89% (Aug 16, 3:00 AM)29.74 "Hg (Aug 16, 3:00 AM)
Low88 °F (Aug 21, 6:00 AM)13% (Aug 17, 2:00 PM)29.39 "Hg (Aug 16, 2:00 PM)
Average97 °F47%29.56 "Hg
* Reported Aug 15 7:00 AM — Aug 30 7:00 AM, Abu Dhabi, Weather by CustomWeather, © 2014

Note: Actual official high and low records may vary slightly from our data, if they occured in-between our weather recording intervals... More about our weather records

Advertising

Abu Dhabi weather history for previous 24 hours

 ConditionsComfort  
Time TempWeatherWind HumidityBarometerVisibility
7:00 AM
Aug 30
91 °FSunny.2 mph41%29.62 "Hg10 mi
6:00 AM90 °FClear.3 mph41%29.59 "Hg10 mi
5:00 AM91 °FPassing clouds.3 mph34%29.59 "HgN/A
4:00 AM93 °FPassing clouds.5 mph32%29.59 "HgN/A
3:00 AM91 °FPassing clouds.7 mph41%29.56 "HgN/A
2:00 AM93 °FClear.7 mph44%29.56 "Hg10 mi
1:00 AM93 °FPassing clouds.5 mph39%29.56 "HgN/A
11:00 PM
Aug 29
97 °FClear.6 mph28%29.62 "Hg5 mi
10:00 PM97 °FClear.10 mph28%29.62 "Hg5 mi
9:00 PM99 °FClear.12 mph27%29.59 "Hg4 mi
8:00 PM99 °FPassing clouds.12 mph33%29.56 "HgN/A
7:00 PM97 °FClear.6 mph50%29.53 "Hg10 mi
6:00 PM100 °FPassing clouds.10 mph35%29.53 "HgN/A
5:00 PM102 °FPassing clouds.14 mph37%29.50 "HgN/A
4:00 PM106 °FPassing clouds.13 mph26%29.53 "HgN/A
3:00 PM109 °FPassing clouds.14 mph19%29.53 "HgN/A
2:00 PM108 °FPassing clouds.7 mph20%29.56 "HgN/A
1:00 PM108 °FPassing clouds.7 mph20%29.59 "HgN/A
12:00 PM106 °FPassing clouds.8 mph22%29.59 "HgN/A
11:00 AM104 °FPassing clouds.9 mph23%29.62 "HgN/A
10:00 AM102 °FPassing clouds.10 mph26%29.62 "HgN/A
9:00 AM99 °FPassing clouds.10 mph29%29.59 "HgN/A
8:00 AM95 °FSunny.10 mph30%29.59 "Hg10 mi
Weather by CustomWeather, © 2014

See weather overviewHow to use our weather pages